| time (UTC) | temp F | wind direction | speed MPH | gust MPH | rain 1hr in | rain 24hr in | rain mn in | humidity % | barometer mb |
| 20260502152216 | 57 | 180 | 0.0 | 1.0 | 0.00 | 0.00 | 0.00 | 1013.3 | |
| 20260502151813 | 57 | 292 | 0.0 | 0.0 | 0.00 | 0.00 | 0.00 | 1013.3 | |
| 20260502151414 | 57 | 247 | 0.0 | 0.0 | 0.00 | 0.00 | 0.00 | 1013.5 | |
| 20260502150714 | 56 | 225 | 0.0 | 1.0 | 0.00 | 0.00 | 0.00 | 1013.8 | |
| 20260502150317 | 56 | 202 | 1.0 | 2.0 | 0.00 | 0.00 | 0.00 | 1013.9 | |
| 20260502150213 | 56 | 180 | 0.0 | 1.0 | 0.00 | 0.00 | 0.00 | 1013.7 | |
| 20260502130513 | 54 | 202 | 2.0 | 3.0 | 0.00 | 0.00 | 0.00 | 1012.9 | |
| 20260502123713 | 53 | 202 | 1.0 | 2.0 | 0.00 | 0.00 | 0.00 | 1012.6 | |
| 20260502122414 | 53 | 202 | 1.0 | 2.0 | 0.00 | 0.00 | 0.00 | 1012.5 | |
| 20260502120813 | 51 | 0 | 0.0 | 0.0 | 0.00 | 0.00 | 0.00 | 1012.6 | |
| 20260502120714 | 51 | 0 | 0.0 | 0.0 | 0.00 | 0.00 | 0.00 | 1012.6 | |
| 20260502115413 | 50 | 0 | 0.0 | 0.0 | 0.00 | 0.00 | 0.00 | 1012.2 | |
| 20260502115313 | 50 | 0 | 0.0 | 0.0 | 0.00 | 0.00 | 0.00 | 1012.3 | |
| 20260502114314 | 49 | 0 | 0.0 | 0.0 | 0.00 | 0.00 | 0.00 | 1012.2 | |
| 20260502114213 | 49 | 0 | 0.0 | 0.0 | 0.00 | 0.00 | 0.00 | 1012.0 | |
| 20260502114113 | 49 | 0 | 0.0 | 0.0 | 0.00 | 0.00 | 0.00 | 1012.0 | |
| 20260502112213 | 50 | 0 | 0.0 | 0.0 | 0.00 | 0.00 | 0.00 | 1011.9 | |
| 20260502112113 | 50 | 0 | 0.0 | 0.0 | 0.00 | 0.00 | 0.00 | 1012.1 | |
| 20260502111713 | 50 | 0 | 0.0 | 0.0 | 0.00 | 0.00 | 0.00 | 1012.1 | |
| 20260502111013 | 50 | 0 | 0.0 | 0.0 | 0.00 | 0.00 | 0.00 | 1012.1 | |
| 20260502110914 | 50 | 0 | 0.0 | 0.0 | 0.00 | 0.00 | 0.00 | 1012.0 | |
| 20260502105914 | 50 | 0 | 0.0 | 0.0 | 0.00 | 0.00 | 0.00 | 1011.9 | |
| 20260502105813 | 50 | 0 | 0.0 | 0.0 | 0.00 | 0.00 | 0.00 | 1012.0 | |
| 20260502105713 | 51 | 0 | 0.0 | 0.0 | 0.00 | 0.00 | 0.00 | 1011.8 | |
| 20260502105613 | 51 | 0 | 0.0 | 0.0 | 0.00 | 0.00 | 0.00 | 1011.8 | |
| 20260502105213 | 51 | 0 | 0.0 | 0.0 | 0.00 | 0.00 | 0.00 | 1011.8 | |
| 20260502105113 | 51 | 0 | 0.0 | 0.0 | 0.00 | 0.00 | 0.00 | 1012.1 | |
| 20260502104713 | 51 | 0 | 0.0 | 0.0 | 0.00 | 0.00 | 0.00 | 1011.8 | |
| 20260502104613 | 51 | 0 | 0.0 | 0.0 | 0.00 | 0.00 | 0.00 | 1012.1 | |
| 20260502104213 | 51 | 0 | 1.0 | 1.0 | 0.00 | 0.00 | 0.00 | 1011.8 | |
| 20260502104113 | 51 | 0 | 0.0 | 1.0 | 0.00 | 0.00 | 0.00 | 1011.9 | |
| 20260502103114 | 51 | 0 | 0.0 | 0.0 | 0.00 | 0.00 | 0.00 | 1011.9 | |
| 20260502103013 | 51 | 0 | 0.0 | 0.0 | 0.00 | 0.00 | 0.00 | 1011.8 | |
| 20260502102913 | 51 | 0 | 0.0 | 0.0 | 0.00 | 0.00 | 0.00 | 1011.9 | |
| 20260502102213 | 51 | 0 | 0.0 | 0.0 | 0.00 | 0.00 | 0.00 | 1011.5 | |
| 20260502101513 | 51 | 0 | 0.0 | 1.0 | 0.00 | 0.00 | 0.00 | 1011.6 | |
| 20260502100813 | 51 | 337 | 0.0 | 1.0 | 0.00 | 0.00 | 0.00 | 1011.6 | |
| 20260502100713 | 50 | 337 | 0.0 | 0.0 | 0.00 | 0.00 | 0.00 | 1011.7 | |
| 20260502100613 | 50 | 315 | 0.0 | 0.0 | 0.00 | 0.00 | 0.00 | 1011.5 | |
| 20260502100513 | 50 | 315 | 0.0 | 0.0 | 0.00 | 0.00 | 0.00 | 1011.7 | |
| 20260502100413 | 50 | 315 | 0.0 | 0.0 | 0.00 | 0.00 | 0.00 | 1011.6 | |
| 20260502100313 | 50 | 315 | 0.0 | 0.0 | 0.00 | 0.00 | 0.00 | 1011.6 | |
| 20260502100213 | 50 | 315 | 0.0 | 0.0 | 0.00 | 0.00 | 0.00 | 1011.7 | |
| 20260502091213 | 51 | 337 | 0.0 | 1.0 | 0.00 | 0.00 | 0.00 | 1012.1 | |
| 20260502091113 | 51 | 292 | 0.0 | 1.0 | 0.00 | 0.00 | 0.00 | 1011.6 | |
| 20260502091013 | 51 | 292 | 1.0 | 1.0 | 0.00 | 0.00 | 0.00 | 1011.6 | |
| 20260502090913 | 51 | 315 | 0.0 | 0.0 | 0.00 | 0.00 | 0.00 | 1012.0 | |
| 20260502090813 | 51 | 0 | 0.0 | 0.0 | 0.00 | 0.00 | 0.00 | 1012.1 | |
| 20260502090413 | 51 | 315 | 0.0 | 0.0 | 0.00 | 0.00 | 0.00 | 1011.9 | |
| 20260502071213 | 56 | 202 | 0.0 | 0.0 | 0.00 | 0.00 | 0.00 | 1012.8 | |
| 20260502071114 | 56 | 202 | 1.0 | 2.0 | 0.00 | 0.00 | 0.00 | 1012.7 | |
| 20260502064914 | 55 | 225 | 1.0 | 2.0 | 0.00 | 0.00 | 0.00 | 1012.6 | |
| 20260502064813 | 55 | 225 | 1.0 | 2.0 | 0.00 | 0.00 | 0.00 | 1012.9 | |
| 20260502064413 | 55 | 202 | 0.0 | 0.0 | 0.00 | 0.00 | 0.00 | 1012.5 | |
| 20260502061914 | 57 | 247 | 0.0 | 0.0 | 0.00 | 0.00 | 0.00 | 1012.4 | |
| 20260502061813 | 57 | 247 | 1.0 | 1.0 | 0.00 | 0.00 | 0.00 | 1012.4 | |
| 20260502061413 | 57 | 202 | 1.0 | 1.0 | 0.00 | 0.00 | 0.00 | 1012.4 | |
| 20260502060713 | 57 | 225 | 1.0 | 1.0 | 0.00 | 0.00 | 0.00 | 1012.4 | |
| 20260502060313 | 57 | 180 | 1.0 | 2.0 | 0.00 | 0.00 | 0.00 | 1012.4 | |
| 20260502060213 | 57 | 225 | 1.0 | 1.0 | 0.00 | 0.00 | 0.00 | 1012.3 | |
| 20260502060113 | 57 | 225 | 1.0 | 1.0 | 0.00 | 0.00 | 0.00 | 1012.4 | |
| 20260502060013 | 57 | 202 | 1.0 | 1.0 | 0.00 | 0.00 | 0.00 | 1012.3 | |
| 20260502055913 | 57 | 225 | 1.0 | 2.0 | 0.00 | 0.00 | 0.00 | 1012.3 | |
| 20260502055513 | 57 | 202 | 1.0 | 2.0 | 0.00 | 0.00 | 0.00 | 1012.4 | |
| 20260502055413 | 57 | 225 | 0.0 | 1.0 | 0.00 | 0.00 | 0.00 | 1012.4 | |
| 20260502054713 | 58 | 202 | 1.0 | 2.0 | 0.00 | 0.00 | 0.00 | 1012.5 | |
| 20260502054313 | 58 | 157 | 1.0 | 2.0 | 0.00 | 0.00 | 0.00 | 1012.5 | |
| 20260502053313 | 58 | 202 | 0.0 | 1.0 | 0.00 | 0.00 | 0.00 | 1012.6 | |
| 20260502053213 | 58 | 202 | 0.0 | 1.0 | 0.00 | 0.00 | 0.00 | 1012.5 | |
| 20260502052513 | 58 | 202 | 1.0 | 1.0 | 0.00 | 0.00 | 0.00 | 1012.5 | |
| 20260502052413 | 58 | 180 | 1.0 | 2.0 | 0.00 | 0.00 | 0.00 | 1012.6 | |
| 20260502052013 | 58 | 180 | 0.0 | 0.0 | 0.00 | 0.00 | 0.00 | 1012.5 | |
| 20260502051913 | 58 | 180 | 0.0 | 0.0 | 0.00 | 0.00 | 0.00 | 1012.4 | |
| 20260502051813 | 58 | 157 | 0.0 | 1.0 | 0.00 | 0.00 | 0.00 | 1012.4 | |
| 20260502051713 | 58 | 157 | 0.0 | 2.0 | 0.00 | 0.00 | 0.00 | 1012.5 | |
| 20260502051013 | 58 | 225 | 0.0 | 1.0 | 0.00 | 0.00 | 0.00 | 1012.5 | |
| 20260502050313 | 59 | 225 | 0.0 | 2.0 | 0.00 | 0.00 | 0.00 | 1012.6 | |
| 20260502045613 | 59 | 225 | 2.0 | 3.0 | 0.00 | 0.00 | 0.00 | 1012.4 | |
| 20260502045513 | 59 | 180 | 1.0 | 2.0 | 0.00 | 0.00 | 0.00 | 1012.3 | |
| 20260502045113 | 59 | 225 | 2.0 | 2.0 | 0.00 | 0.00 | 0.00 | 1012.3 | |
| 20260502044713 | 59 | 202 | 1.0 | 1.0 | 0.00 | 0.00 | 0.00 | 1012.4 | |
| 20260502044614 | 59 | 180 | 1.0 | 2.0 | 0.00 | 0.00 | 0.00 | 1012.4 | |
| 20260502044213 | 59 | 157 | 0.0 | 1.0 | 0.00 | 0.00 | 0.00 | 1012.4 | |
| 20260502043814 | 59 | 225 | 3.0 | 3.0 | 0.00 | 0.00 | 0.00 | 1012.3 | |
| 20260502043413 | 59 | 202 | 1.0 | 1.0 | 0.00 | 0.00 | 0.00 | 1012.3 | |
| 20260502043314 | 59 | 225 | 1.0 | 2.0 | 0.00 | 0.00 | 0.00 | 1012.3 | |
| 20260502042613 | 59 | 202 | 0.0 | 1.0 | 0.00 | 0.00 | 0.00 | 1012.2 | |
| 20260502041913 | 60 | 225 | 2.0 | 4.0 | 0.00 | 0.00 | 0.00 | 1012.0 | |
| 20260502041513 | 60 | 180 | 2.0 | 3.0 | 0.00 | 0.00 | 0.00 | 1012.1 | |
| 20260502040513 | 60 | 180 | 0.0 | 1.0 | 0.00 | 0.00 | 0.00 | 1011.9 | |
| 20260502034413 | 61 | 180 | 2.0 | 4.0 | 0.00 | 0.00 | 0.00 | 1011.2 | |
| 20260502034013 | 61 | 202 | 3.0 | 4.0 | 0.00 | 0.00 | 0.00 | 1011.2 | |
| 20260502033313 | 62 | 180 | 1.0 | 3.0 | 0.00 | 0.00 | 0.00 | 1011.2 | |
| 20260502033213 | 62 | 180 | 2.0 | 4.0 | 0.00 | 0.00 | 0.00 | 1011.0 | |
| 20260502032813 | 62 | 202 | 2.0 | 2.0 | 0.00 | 0.00 | 0.00 | 1011.2 | |
| 20260502032713 | 62 | 157 | 3.0 | 4.0 | 0.00 | 0.00 | 0.00 | 1011.0 | |
| 20260502032313 | 62 | 225 | 3.0 | 4.0 | 0.00 | 0.00 | 0.00 | 1011.0 | |
| 20260502031613 | 63 | 202 | 3.0 | 5.0 | 0.00 | 0.00 | 0.00 | 1010.9 | |
| 20260502031513 | 63 | 180 | 3.0 | 4.0 | 0.00 | 0.00 | 0.00 | 1010.9 | |
| 20260502030513 | 63 | 180 | 2.0 | 4.0 | 0.00 | 0.00 | 0.00 | 1010.9 | |
| 20260502025213 | 64 | 202 | 2.0 | 4.0 | 0.00 | 0.00 | 0.00 | 1010.7 | |
| 20260502025113 | 65 | 202 | 2.0 | 2.0 | 0.00 | 0.00 | 0.00 | 1010.7 | |
| 20260502025013 | 65 | 180 | 2.0 | 2.0 | 0.00 | 0.00 | 0.00 | 1010.9 | |
| 20260502024613 | 65 | 157 | 2.0 | 4.0 | 0.00 | 0.00 | 0.00 | 1010.7 | |
| 20260502024514 | 65 | 180 | 1.0 | 2.0 | 0.00 | 0.00 | 0.00 | 1010.7 | |
| 20260502023514 | 66 | 157 | 4.0 | 4.0 | 0.00 | 0.00 | 0.00 | 1010.4 | |
| 20260502022513 | 66 | 225 | 2.0 | 4.0 | 0.00 | 0.00 | 0.00 | 1010.6 | |
| 20260502022113 | 67 | 202 | 2.0 | 3.0 | 0.00 | 0.00 | 0.00 | 1010.5 | |
| 20260502022013 | 67 | 202 | 2.0 | 4.0 | 0.00 | 0.00 | 0.00 | 1010.3 | |
| 20260502021613 | 67 | 225 | 2.0 | 5.0 | 0.00 | 0.00 | 0.00 | 1010.3 | |
| 20260502021513 | 67 | 247 | 3.0 | 5.0 | 0.00 | 0.00 | 0.00 | 1010.3 | |
| 20260502021113 | 67 | 202 | 2.0 | 4.0 | 0.00 | 0.00 | 0.00 | 1010.2 | |
| 20260502020413 | 67 | 202 | 3.0 | 5.0 | 0.00 | 0.00 | 0.00 | 1010.2 | |
| 20260502020313 | 67 | 225 | 4.0 | 6.0 | 0.00 | 0.00 | 0.00 | 1010.2 | |
| 20260502015013 | 68 | 225 | 4.0 | 6.0 | 0.00 | 0.00 | 0.00 | 1010.0 | |
| 20260502014313 | 69 | 202 | 3.0 | 4.0 | 0.00 | 0.00 | 0.00 | 1010.0 | |
| 20260502014213 | 69 | 202 | 4.0 | 5.0 | 0.00 | 0.00 | 0.00 | 1009.9 | |
| 20260502013813 | 69 | 202 | 4.0 | 6.0 | 0.00 | 0.00 | 0.00 | 1010.0 | |
| 20260502013714 | 69 | 247 | 3.0 | 4.0 | 0.00 | 0.00 | 0.00 | 1009.9 | |
| 20260502013613 | 69 | 247 | 3.0 | 4.0 | 0.00 | 0.00 | 0.00 | 1010.0 | |
| 20260502013513 | 69 | 225 | 5.0 | 8.0 | 0.00 | 0.00 | 0.00 | 1010.0 | |
| 20260502013413 | 69 | 225 | 2.0 | 4.0 | 0.00 | 0.00 | 0.00 | 1010.0 | |
| 20260502013013 | 69 | 225 | 3.0 | 5.0 | 0.00 | 0.00 | 0.00 | 1010.0 | |
| 20260502012014 | 70 | 180 | 3.0 | 4.0 | 0.00 | 0.00 | 0.00 | 1009.7 | |
| 20260502011613 | 71 | 225 | 3.0 | 5.0 | 0.00 | 0.00 | 0.00 | 1009.9 | |
| 20260502011513 | 71 | 202 | 4.0 | 6.0 | 0.00 | 0.00 | 0.00 | 1009.8 | |
| 20260502010514 | 71 | 202 | 5.0 | 6.0 | 0.00 | 0.00 | 0.00 | 1009.8 | |
| 20260502005213 | 72 | 202 | 3.0 | 7.0 | 0.00 | 0.00 | 0.00 | 1009.7 | |
| 20260502005113 | 72 | 225 | 4.0 | 6.0 | 0.00 | 0.00 | 0.00 | 1009.5 | |
| 20260502004714 | 72 | 202 | 2.0 | 3.0 | 0.00 | 0.00 | 0.00 | 1009.5 | |
| 20260502004614 | 72 | 157 | 3.0 | 4.0 | 0.00 | 0.00 | 0.00 | 1009.7 | |
| 20260502004213 | 72 | 180 | 5.0 | 7.0 | 0.00 | 0.00 | 0.00 | 1009.5 | |
| 20260502004113 | 72 | 225 | 5.0 | 8.0 | 0.00 | 0.00 | 0.00 | 1009.5 | |
| 20260502004013 | 73 | 225 | 5.0 | 7.0 | 0.00 | 0.00 | 0.00 | 1009.6 | |
| 20260502003913 | 73 | 225 | 2.0 | 3.0 | 0.00 | 0.00 | 0.00 | 1009.6 | |
| 20260502003813 | 73 | 180 | 2.0 | 3.0 | 0.00 | 0.00 | 0.00 | 1009.6 | |
| 20260502003713 | 73 | 180 | 1.0 | 2.0 | 0.00 | 0.00 | 0.00 | 1009.8 | |
| 20260502003613 | 73 | 270 | 2.0 | 3.0 | 0.00 | 0.00 | 0.00 | 1009.7 | |
| 20260502003513 | 73 | 180 | 6.0 | 9.0 | 0.00 | 0.00 | 0.00 | 1009.7 | |
| 20260502002514 | 74 | 202 | 4.0 | 8.0 | 0.00 | 0.00 | 0.00 | 1009.8 | |
| 20260502002114 | 74 | 225 | 6.0 | 9.0 | 0.00 | 0.00 | 0.00 | 1009.8 | |
| 20260502002013 | 74 | 202 | 4.0 | 7.0 | 0.00 | 0.00 | 0.00 | 1009.9 | |
| 20260502001914 | 74 | 225 | 6.0 | 9.0 | 0.00 | 0.00 | 0.00 | 1009.7 | |
| 20260502001813 | 74 | 225 | 3.0 | 5.0 | 0.00 | 0.00 | 0.00 | 1009.9 | |
| 20260502001713 | 75 | 225 | 5.0 | 9.0 | 0.00 | 0.00 | 0.00 | 1009.7 | |
| 20260502001613 | 75 | 180 | 4.0 | 8.0 | 0.00 | 0.00 | 0.00 | 1009.8 | |
| 20260502000913 | 75 | 225 | 6.0 | 8.0 | 0.00 | 0.00 | 0.00 | 1009.7 | |
| 20260502000813 | 75 | 225 | 3.0 | 8.0 | 0.00 | 0.00 | 0.00 | 1009.6 | |
| 20260502000113 | 76 | 202 | 4.0 | 9.0 | 0.00 | 0.00 | 0.00 | 1009.6 | |
| 20260501234513 | 77 | 202 | 6.0 | 10.0 | 0.00 | 0.00 | 0.00 | 1009.5 | |
| 20260501233513 | 79 | 225 | 2.0 | 4.0 | 0.00 | 0.00 | 0.00 | 1009.3 | |
| 20260501232813 | 79 | 157 | 2.0 | 4.0 | 0.00 | 0.00 | 0.00 | 1009.6 | |
| 20260501232413 | 79 | 180 | 2.0 | 4.0 | 0.00 | 0.00 | 0.00 | 1009.3 | |
| 20260501232313 | 79 | 135 | 2.0 | 5.0 | 0.00 | 0.00 | 0.00 | 1009.4 | |
| 20260501232213 | 79 | 202 | 4.0 | 7.0 | 0.00 | 0.00 | 0.00 | 1009.3 | |
| 20260501232113 | 79 | 202 | 5.0 | 7.0 | 0.00 | 0.00 | 0.00 | 1009.6 | |
| 20260501232013 | 79 | 225 | 4.0 | 8.0 | 0.00 | 0.00 | 0.00 | 1009.5 | |
| 20260501231313 | 80 | 315 | 5.0 | 9.0 | 0.00 | 0.00 | 0.00 | 1009.6 | |
| 20260501231213 | 80 | 225 | 4.0 | 8.0 | 0.00 | 0.00 | 0.00 | 1009.6 | |
| 20260501231113 | 80 | 202 | 5.0 | 7.0 | 0.00 | 0.00 | 0.00 | 1009.6 | |
| 20260501230713 | 81 | 225 | 7.0 | 10.0 | 0.00 | 0.00 | 0.00 | 1009.6 | |
| 20260501230613 | 81 | 202 | 6.0 | 8.0 | 0.00 | 0.00 | 0.00 | 1009.5 | |
| 20260501225313 | 82 | 225 | 5.0 | 7.0 | 0.00 | 0.00 | 0.00 | 1009.9 | |
| 20260501225213 | 82 | 270 | 2.0 | 3.0 | 0.00 | 0.00 | 0.00 | 1009.8 | |
| 20260501224813 | 83 | 202 | 5.0 | 7.0 | 0.00 | 0.00 | 0.00 | 1009.9 | |
| 20260501224113 | 83 | 225 | 6.0 | 8.0 | 0.00 | 0.00 | 0.00 | 1009.7 | |
| 20260501222814 | 84 | 247 | 3.0 | 4.0 | 0.00 | 0.00 | 0.00 | 1010.2 | |
| 20260501222713 | 84 | 225 | 5.0 | 7.0 | 0.00 | 0.00 | 0.00 | 1010.2 | |
| 20260501222313 | 84 | 202 | 2.0 | 3.0 | 0.00 | 0.00 | 0.00 | 1010.1 | |
| 20260501221913 | 84 | 180 | 2.0 | 4.0 | 0.00 | 0.00 | 0.00 | 1010.1 | |
| 20260501221813 | 84 | 180 | 1.0 | 2.0 | 0.00 | 0.00 | 0.00 | 1010.1 | |
| 20260501221713 | 84 | 180 | 2.0 | 3.0 | 0.00 | 0.00 | 0.00 | 1010.2 | |
| 20260501221313 | 84 | 135 | 2.0 | 2.0 | 0.00 | 0.00 | 0.00 | 1010.3 | |
| 20260501220613 | 85 | 135 | 3.0 | 4.0 | 0.00 | 0.00 | 0.00 | 1010.5 | |
| 20260501220513 | 84 | 202 | 3.0 | 4.0 | 0.00 | 0.00 | 0.00 | 1010.4 | |
| 20260501215513 | 84 | 202 | 2.0 | 4.0 | 0.00 | 0.00 | 0.00 | 1010.5 | |
| 20260501213613 | 83 | 180 | 2.0 | 4.0 | 0.00 | 0.00 | 0.00 | 1011.1 | |
| 20260501213513 | 83 | 180 | 1.0 | 2.0 | 0.00 | 0.00 | 0.00 | 1011.1 | |
| 20260501213113 | 83 | 180 | 2.0 | 3.0 | 0.00 | 0.00 | 0.00 | 1010.9 | |
| 20260501213013 | 83 | 292 | 2.0 | 4.0 | 0.00 | 0.00 | 0.00 | 1011.0 | |
| 20260501212913 | 83 | 157 | 2.0 | 5.0 | 0.00 | 0.00 | 0.00 | 1011.1 | |
| 20260501212813 | 83 | 180 | 3.0 | 5.0 | 0.00 | 0.00 | 0.00 | 1010.9 | |
| 20260501212414 | 83 | 22 | 2.0 | 3.0 | 0.00 | 0.00 | 0.00 | 1010.9 | |
| 20260501212313 | 84 | 315 | 3.0 | 4.0 | 0.00 | 0.00 | 0.00 | 1010.9 | |
| 20260501211613 | 83 | 180 | 2.0 | 2.0 | 0.00 | 0.00 | 0.00 | 1011.1 | |
| 20260501211513 | 83 | 0 | 1.0 | 2.0 | 0.00 | 0.00 | 0.00 | 1011.0 | |
| 20260501211413 | 82 | 315 | 1.0 | 3.0 | 0.00 | 0.00 | 0.00 | 1011.1 | |
| 20260501211313 | 82 | 337 | 0.0 | 0.0 | 0.00 | 0.00 | 0.00 | 1011.0 | |
| 20260501210314 | 81 | 225 | 1.0 | 2.0 | 0.00 | 0.00 | 0.00 | 1011.0 | |
| 20260501210213 | 81 | 202 | 1.0 | 2.0 | 0.00 | 0.00 | 0.00 | 1011.0 | |
| 20260501210113 | 80 | 180 | 2.0 | 2.0 | 0.00 | 0.00 | 0.00 | 1011.5 | |
| 20260501210013 | 80 | 180 | 3.0 | 4.0 | 0.00 | 0.00 | 0.00 | 1011.2 | |
| 20260501205013 | 79 | 202 | 3.0 | 5.0 | 0.00 | 0.00 | 0.00 | 1011.7 | |
| 20260501204613 | 80 | 202 | 2.0 | 4.0 | 0.00 | 0.00 | 0.00 | 1011.5 | |
| 20260501204513 | 80 | 225 | 4.0 | 6.0 | 0.00 | 0.00 | 0.00 | 1011.7 | |
| 20260501204413 | 80 | 135 | 2.0 | 6.0 | 0.00 | 0.00 | 0.00 | 1011.6 | |
| 20260501204313 | 79 | 225 | 2.0 | 3.0 | 0.00 | 0.00 | 0.00 | 1011.8 | |
| 20260501204213 | 79 | 157 | 2.0 | 5.0 | 0.00 | 0.00 | 0.00 | 1011.7 | |
| 20260501203513 | 78 | 180 | 1.0 | 2.0 | 0.00 | 0.00 | 0.00 | 1011.7 | |
| 20260501203413 | 78 | 157 | 2.0 | 4.0 | 0.00 | 0.00 | 0.00 | 1011.8 | |
| 20260501203013 | 77 | 157 | 1.0 | 3.0 | 0.00 | 0.00 | 0.00 | 1011.6 | |
| 20260501202913 | 77 | 315 | 1.0 | 2.0 | 0.00 | 0.00 | 0.00 | 1011.7 | |
| 20260501202813 | 77 | 157 | 4.0 | 7.0 | 0.00 | 0.00 | 0.00 | 1011.8 | |
| 20260501201813 | 76 | 135 | 1.0 | 2.0 | 0.00 | 0.00 | 0.00 | 1012.0 | |
| 20260501201713 | 76 | 315 | 2.0 | 3.0 | 0.00 | 0.00 | 0.00 | 1011.8 | |
| 20260501201313 | 75 | 270 | 5.0 | 8.0 | 0.00 | 0.00 | 0.00 | 1011.8 | |
| 20260501201213 | 76 | 225 | 3.0 | 9.0 | 0.00 | 0.00 | 0.00 | 1011.7 | |
| 20260501201113 | 76 | 225 | 4.0 | 6.0 | 0.00 | 0.00 | 0.00 | 1011.7 | |
| 20260501201013 | 76 | 225 | 5.0 | 7.0 | 0.00 | 0.00 | 0.00 | 1011.8 | |
| 20260501200313 | 75 | 202 | 2.0 | 4.0 | 0.00 | 0.00 | 0.00 | 1011.8 | |
| 20260501195913 | 75 | 157 | 2.0 | 5.0 | 0.00 | 0.00 | 0.00 | 1011.8 | |
| 20260501195213 | 73 | 202 | 2.0 | 3.0 | 0.00 | 0.00 | 0.00 | 1011.9 | |
| 20260501193313 | 72 | 225 | 4.0 | 6.0 | 0.00 | 0.00 | 0.00 | 1012.4 | |
| 20260501192913 | 71 | 202 | 3.0 | 5.0 | 0.00 | 0.00 | 0.00 | 1012.5 | |
| 20260501192813 | 71 | 315 | 3.0 | 5.0 | 0.00 | 0.00 | 0.00 | 1012.6 | |
| 20260501192714 | 71 | 225 | 4.0 | 6.0 | 0.00 | 0.00 | 0.00 | 1012.6 | |
| 20260501192013 | 71 | 157 | 2.0 | 4.0 | 0.00 | 0.00 | 0.00 | 1012.6 | |
| 20260501190414 | 70 | 225 | 3.0 | 5.0 | 0.00 | 0.00 | 0.00 | 1012.8 | |
| 20260501190013 | 69 | 202 | 2.0 | 5.0 | 0.00 | 0.00 | 0.00 | 1012.8 | |
| 20260501185913 | 69 | 225 | 2.0 | 3.0 | 0.00 | 0.00 | 0.00 | 1012.8 | |
| 20260501185813 | 70 | 180 | 2.0 | 4.0 | 0.00 | 0.00 | 0.00 | 1012.8 | |
| 20260501185713 | 70 | 202 | 1.0 | 2.0 | 0.00 | 0.00 | 0.00 | 1012.8 | |
| 20260501185013 | 69 | 225 | 5.0 | 6.0 | 0.00 | 0.00 | 0.00 | 1013.1 | |
| 20260501184613 | 69 | 292 | 4.0 | 7.0 | 0.00 | 0.00 | 0.00 | 1013.0 | |
| 20260501184514 | 69 | 225 | 3.0 | 6.0 | 0.00 | 0.00 | 0.00 | 1013.1 | |
| 20260501184113 | 69 | 292 | 3.0 | 3.0 | 0.00 | 0.00 | 0.00 | 1013.1 | |
| 20260501184013 | 68 | 315 | 2.0 | 3.0 | 0.00 | 0.00 | 0.00 | 1013.1 | |
| 20260501183913 | 68 | 270 | 3.0 | 5.0 | 0.00 | 0.00 | 0.00 | 1013.2 | |
| 20260501183813 | 68 | 292 | 3.0 | 4.0 | 0.00 | 0.00 | 0.00 | 1013.1 | |
| 20260501183713 | 68 | 247 | 2.0 | 4.0 | 0.00 | 0.00 | 0.00 | 1013.1 | |
| 20260501183613 | 68 | 292 | 1.0 | 2.0 | 0.00 | 0.00 | 0.00 | 1013.1 | |
| 20260501183513 | 67 | 180 | 2.0 | 5.0 | 0.00 | 0.00 | 0.00 | 1013.2 | |
| 20260501183113 | 68 | 180 | 3.0 | 4.0 | 0.00 | 0.00 | 0.00 | 1013.1 | |
| 20260501182714 | 68 | 90 | 1.0 | 1.0 | 0.00 | 0.00 | 0.00 | 1013.4 | |
| 20260501182613 | 68 | 0 | 2.0 | 4.0 | 0.00 | 0.00 | 0.00 | 1013.3 | |
| 20260501181613 | 66 | 337 | 3.0 | 5.0 | 0.00 | 0.00 | 0.00 | 1013.5 | |
| 20260501181513 | 66 | 315 | 3.0 | 5.0 | 0.00 | 0.00 | 0.00 | 1013.6 | |
| 20260501181413 | 66 | 270 | 4.0 | 5.0 | 0.00 | 0.00 | 0.00 | 1013.5 | |
| 20260501181314 | 66 | 225 | 4.0 | 6.0 | 0.00 | 0.00 | 0.00 | 1013.6 | |
| 20260501174813 | 64 | 180 | 1.0 | 2.0 | 0.00 | 0.00 | 0.00 | 1013.8 | |
| 20260501173214 | 63 | 202 | 1.0 | 2.0 | 0.00 | 0.00 | 0.00 | 1013.7 | |
| 20260501172515 | 64 | 225 | 2.0 | 5.0 | 0.00 | 0.00 | 0.00 | 1013.6 | |
| 20260501172113 | 64 | 180 | 1.0 | 2.0 | 0.00 | 0.00 | 0.00 | 1013.5 | |
| 20260501172014 | 64 | 202 | 1.0 | 3.0 | 0.00 | 0.00 | 0.00 | 1013.6 | |
| 20260501171613 | 64 | 157 | 1.0 | 1.0 | 0.00 | 0.00 | 0.00 | 1013.7 | |
| 20260501171214 | 63 | 180 | 0.0 | 1.0 | 0.00 | 0.00 | 0.00 | 1013.6 | |
| 20260501171113 | 63 | 202 | 0.0 | 1.0 | 0.00 | 0.00 | 0.00 | 1013.6 | |
| 20260501171013 | 63 | 202 | 0.0 | 0.0 | 0.00 | 0.00 | 0.00 | 1013.7 | |
| 20260501165413 | 62 | 90 | 0.0 | 0.0 | 0.00 | 0.00 | 0.00 | 1013.9 | |
| 20260501164713 | 61 | 180 | 0.0 | 1.0 | 0.00 | 0.00 | 0.00 | 1013.9 | |
| 20260501164313 | 61 | 225 | 2.0 | 4.0 | 0.00 | 0.00 | 0.00 | 1013.9 | |
| 20260501163614 | 61 | 225 | 1.0 | 2.0 | 0.00 | 0.00 | 0.00 | 1013.8 | |
| 20260501163213 | 61 | 157 | 0.0 | 1.0 | 0.00 | 0.00 | 0.00 | 1013.7 | |
| 20260501162413 | 60 | 157 | 1.0 | 2.0 | 0.00 | 0.00 | 0.00 | 1013.8 | |
| 20260501161113 | 60 | 225 | 1.0 | 3.0 | 0.00 | 0.00 | 0.00 | 1013.7 | |
| 20260501155713 | 60 | 202 | 1.0 | 2.0 | 0.00 | 0.00 | 0.00 | 1013.5 | |
| 20260501155615 | 60 | 225 | 1.0 | 2.0 | 0.00 | 0.00 | 0.00 | 1013.6 | |
| 20260501155513 | 60 | 225 | 1.0 | 1.0 | 0.00 | 0.00 | 0.00 | 1013.6 | |
| 20260501155413 | 60 | 202 | 1.0 | 2.0 | 0.00 | 0.00 | 0.00 | 1013.7 | |
| 20260501153513 | 60 | 202 | 1.0 | 2.0 | 0.00 | 0.00 | 0.00 | 1013.5 |